P/2021 N1 ( ZTF )

Japanese version
Home page
Updated on September 11, 2021

---------------------------------------------------------------------

* Profile

Discovery Date July 2, 2021
Magnitude 18.9 mag
Discoverer Zwicky Transient Facility (ZTF) survey at Palomar

* Pictures

* Orbital Elements

Epoch 2021 July 5.0 TT = JDT 2459400.5
T 2021 June 6.55399 TT                                  Rudenko
q   0.9622063            (2000.0)            P               Q
n   0.19186332     Peri.   21.19078     +0.78559063     +0.59473852
a   2.9772004      Node   301.16389     -0.59250239     +0.64359236
e   0.6768084      Incl.   11.50601     -0.17829267     +0.48174160
P   5.14
From 85 observations 2021 June 17-July 12, mean residual 0".6.

* Magnitudes Graph

        m1 = 17.5 + 5 log d + 10.0 log r

---------------------------------------------------------------------

The orbital elements are published on M.P.E.C. 2021-P47.
The magnitudes graphs are made with Comet for Windows.

---------------------------------------------------------------------

Copyright(C) Seiichi Yoshida (comet@aerith.net). All rights reserved.